Regional Weather Roundup
Issued by NWS

Home | Current Version | Previous Version | Graphics & Text | Print | Product List | Glossary On
Versions: 1 2 3 4 5 6 7 8 9 10 11 12 13 14 15 16 17 18 19 20 21 22 23 24 25 26 27 28 29 30 31 32 33 34 35 36 37 38 39 40 41 42 43 44 45 46 47 48 49 50
000
ASUS43 KLOT 240010
RWRIL

ILLINOIS REGIONAL WEATHER ROUNDUP
NATIONAL WEATHER SERVICE CHICAGO/ROMEOVILLE IL
700 PM CDT TUE SEP 23 2014

NOTE: "FAIR" INDICATES FEW OR NO CLOUDS BELOW 12,000 FEET WITH NO
SIGNIFICANT WEATHER AND/OR OBSTRUCTIONS TO VISIBILITY.

* THESE STATIONS ARE NOT UNDER NWS QUALITY CONTROL. THEY ALSO MAY NOT
  REPORT WEATHER SUCH AS PRECIPITATION OR FOG.

ILZ001-002-007-009-015-016-024-240100-
NORTHWEST ILLINOIS

CITY           SKY/WX    TMP DP  RH WIND       PRES   REMARKS
MOLINE         PTCLDY    63  52  67 SE5       30.23S
6HR MIN TEMP:  62; 6HR MAX TEMP:  75;

STERLING*      PTCLDY    64  48  55 SW3       30.25S
SAVANNA*       PTCLDY    65  49  55 SE5       30.24R
$$

ILZ003-004-008-010-011-017-018-240100-
NORTH CENTRAL ILLINOIS

CITY           SKY/WX    TMP DP  RH WIND       PRES   REMARKS
ROCKFORD       MOCLDY    65  51  60 SE6       30.28R
6HR MIN TEMP:  65; 6HR MAX TEMP:  75;

DE KALB*       PTCLDY    61  49  66 SE6       30.28S
PERU*          MOCLDY    69  48  46 SE6       30.26S
$$

ILZ005-006-012>014-019>023-240100-
NORTHEAST ILLINOIS

CITY           SKY/WX    TMP DP  RH WIND       PRES   REMARKS
CHICAGO-OHARE  PTCLDY    68  48  48 E5        30.28R
6HR MIN TEMP:  67; 6HR MAX TEMP:  74;

CHICAGO-MIDWAY PTCLDY    69  50  50 SE9       30.28R
6HR MIN TEMP:  69; 6HR MAX TEMP:  76;

AURORA         PTCLDY    62  50  64 CALM      30.28R
6HR MIN TEMP:  62; 6HR MAX TEMP:  74;

LANSING*       CLEAR     64  51  60 NE3       30.29S
JOLIET*        CLEAR     61  52  71 CALM      30.29R
WAUKEGAN       CLEAR     60  50  69 SE3       30.28S
6HR MIN TEMP:  60; 6HR MAX TEMP:  72;

DUPAGE AIRPORT CLEAR     62  52  69 E3        30.27S
6HR MIN TEMP:  62; 6HR MAX TEMP:  75;

KANKAKEE*      CLEAR     62  51  66 CALM      30.28S
WHEELING       CLEAR     66  48  52 SE5       30.30R
6HR MIN TEMP:  66; 6HR MAX TEMP:  75;

ROMEOVILLE*    CLEAR     65  48  54 SE5       30.28S
NORTHERLY ISL    N/A     62  55  77 SE1         N/A
$$

LMZ740>746-240100-
SOUTHERN LAKE MICHIGAN

STATION/POSITION SKY/WX   TEMP    WIND        PRES    VSBY  WAVE
                          AIR SEA DIR/SP/G                  HT/PER
                          (F)     (DEG/KT/KT) (MB)    (MI)  (FT/S)
SOUTHERN BUOY              62 62  160/  6/  8 1025.9R         1
WAUKEGAN HARBOR            60     190/  5/  6   N/A
BURNHAM HARBOR             62      CALM  /  5   N/A
CALUMET HARBOR             64     100/  5/  6 1024.3S
MICHIGAN CITY 6N           64 64   70/  6/  8   N/A           1
ST. JOSEPH                 64 65   50/  6/  6   N/A           1
$$

ILZ025>027-034>036-040-047-049-050-058-095>099-240100-
WEST-CENTRAL ILLINOIS

CITY           SKY/WX    TMP DP  RH WIND       PRES   REMARKS
QUINCY         MOCLDY    67  51  56 S3        30.22F
GALESBURG*     PTCLDY   N/A N/A N/A CALM      30.24S
MACOMB*        MOCLDY    67  50  55 SE3       30.25F
JACKSONVILLE*  MOCLDY    70  50  48 SE3       30.24S
PITTSFIELD*    PTCLDY    66  52  60 CALM      30.25R
$$

ILZ028>032-037-038-041>044-048-051>054-059>061-240100-
CENTRAL ILLINOIS

CITY           SKY/WX    TMP DP  RH WIND       PRES   REMARKS
PONTIAC        PTCLDY    64  52  63 SE3       30.26F
BLOOMINGTON    MOCLDY    67  49  52 SE7       30.27S
DECATUR        MOCLDY    68  47  46 SE7       30.26S
PEORIA         MOCLDY    69  51  52 E3        30.24S
6HR MIN TEMP:  69; 6HR MAX TEMP:  76;

LACON*         MOCLDY    62  54  73 CALM      30.24S
LINCOLN*       MOCLDY    69  47  45 E3        30.22S
SPRINGFIELD    MOCLDY    68  50  52 SE3       30.24S
6HR MIN TEMP:  68; 6HR MAX TEMP:  76;

TAYLORVILLE    HAZE      66  46  48 SE3       30.25S VSB 3/4
$$

ILZ033-039-045-046-055>057-062-063-240100-
EAST-CENTRAL ILLINOIS

CITY           SKY/WX    TMP DP  RH WIND       PRES   REMARKS
CHAMPAIGN      PTCLDY    62  50  64 NE5       30.27S
DANVILLE*      CLEAR     61  50  67 CALM      30.25R
RANTOUL*       CLEAR     66  48  52 SE3       30.28S
MATTOON        PTCLDY    63  51  65 SE3       30.25S
PARIS*         CLEAR     58  54  85 CALM      30.27S
$$

ILZ079-100>102-240100-
SOUTHWEST ILLINOIS

CITY           SKY/WX    TMP DP  RH WIND       PRES   REMARKS
BELLEVILLE     PTCLDY    67  51  55 CALM      30.22S
CAHOKIA*       PTCLDY    68  51  54 CALM      30.23R
SPARTA*        CLEAR     65  50  59 E3        30.23S
$$

ILZ064>066-069>071-074>076-080>082-084>086-088>090-092>094-240100-
SOUTH-CENTRAL ILLINOIS

CITY           SKY/WX    TMP DP  RH WIND       PRES   REMARKS
CARBONDALE     CLEAR     61  51  70 NE3       30.22S
6HR MIN TEMP:  61; 6HR MAX TEMP:  75;

CAIRO*         CLEAR     64  52  66 NE3       30.20S
EFFINGHAM*     PTCLDY    61  51  70 CALM      30.25S
MARION         CLEAR     64  50  59 CALM      30.22F
MT. VERNON     CLEAR     59  48  67 NE3       30.24F
CENTRALIA*     PTCLDY    63  51  66 CALM      30.23F
SALEM*         PTCLDY    64  56  76 CALM      30.24S
METROPOLIS*    CLEAR     64  51  61 CALM      30.20F
$$

ILZ067-068-072-073-078-083-087-091-240100-
SOUTHEAST ILLINOIS

CITY           SKY/WX    TMP DP  RH WIND       PRES   REMARKS
LAWRENCEVILLE  CLEAR     61  51  70 NE6       30.25S
FLORA*         CLEAR     66  50  56 E3        30.25S
FAIRFIELD*     CLEAR    N/A N/A N/A CALM      30.24S
HARRISBURG*    CLEAR     67  47  48 NE5       30.24S
ROBINSON*      CLEAR     63  53  69 E6        30.27R
CARMI*         CLEAR     64  53  69 CALM      30.24S
$$

ABBREVIATIONS USED IN REMARKS
   TC - TEMPERATURE IN CELSIUS
  WCI - WIND CHILL INDEX
   HX - HEAT INDEX
  VSB - VISIBILITY
$$




USA.gov is the U.S. government's official web portal to all federal, state and local government web resources and services.